Weather History for KFXE - May, 2013

Change the Weather History Date:

Friday, May 3, 2013

  Actual Average (KFLL) Record (KFLL)
Temperature  
Mean Temperature 76 °F 78 °F  
Max Temperature 87 °F 85 °F 91 °F (1964)
Min Temperature 64 °F 72 °F 55 °F (1925)
Degree Days  
Heating Degree Days 0 0  
Month to date heating degree days 0  
Since 1 July heating degree days 112  
Cooling Degree Days 10 13  
Month to date cooling degree days 39  
Year to date cooling degree days 986  
Growing Degree Days 26 (Base 50)    
Moisture  
Dew Point 68 °F    
Average Humidity 78    
Maximum Humidity 100    
Minimum Humidity 43    
Precipitation  
Precipitation 0.08 in 0.06 in 4.54 in (1963)
Month to date precipitation 0.19  
Year to date precipitation 13.03  
Snow  
Snow 0.00 in - - ()
Month to date snowfall  
Since 1 July snowfall  
Snow Depth -    
Sea Level Pressure  
Sea Level Pressure 29.76 in    
Wind  
Wind Speed 6 mph (SW)    
Max Wind Speed 14 mph    
Max Gust Speed 16 mph    
Visibility 10 miles    
Events Rain , Thunderstorm    
T = Trace of Precipitation, MM = Missing Value Source: NWS Daily Summary

Daily Weather History Graph

Daily Weather History Graph

Search for Another Location

Airport or City:

Trip Planner

Search our weather history database for the weather conditions in past years. The results will help you decide how hot, cold, wet, or windy it might be!

Date:

Astronomy

May. 03, 2013 Rise Set
Actual Time 6:41 AM EDT 7:53 PM EDT
Civil Twilight 6:17 AM EDT 8:18 PM EDT
Nautical Twilight 5:48 AM EDT 8:47 PM EDT
Astronomical Twilight 5:18 AM EDT 9:17 PM EDT
Moon 2:28 AM EDT (5/3) 2:20 PM EDT (5/3)
Length of Visible Light 14h 00m
Length of Day
13h 12m
Last Quarter, 37% of the Moon is Illuminated
May 3
Last Quarter
May 9
New
May 18
First Quarter
May 25
Full
May 31
Last Quarter

Hourly Weather History & Observations

Time (EDT) Temp. Heat Index Dew Point Humidity Pressure Visibility Wind Dir Wind Speed Gust Speed Precip Events Conditions
12:44 AM 69.8 °F - 69.8 °F 100% 29.80 in 10.0 mi ESE 5.8 mph - 0.01 in   Overcast
12:53 AM 69.1 °F - 69.1 °F 100% 29.80 in 10.0 mi East 5.8 mph - 0.01 in   Mostly Cloudy
1:53 AM 68.0 °F - 68.0 °F 100% 29.77 in 10.0 mi South 3.5 mph - 0.00 in   Scattered Clouds
2:53 AM 64.9 °F - - N/A% 29.75 in 10.0 mi West 5.8 mph - N/A   Clear
3:33 AM 64.4 °F - - N/A% 29.74 in 10.0 mi WSW 5.8 mph - N/A   Mostly Cloudy
3:43 AM 64.4 °F - - N/A% 29.74 in 10.0 mi SSW 5.8 mph - N/A   Mostly Cloudy
3:53 AM 64.9 °F - - N/A% 29.76 in 10.0 mi SSW 8.1 mph - N/A   Overcast
4:53 AM 64.0 °F - - N/A% 29.77 in 10.0 mi WSW 8.1 mph - N/A   Overcast
5:53 AM 64.0 °F - - N/A% 29.78 in 10.0 mi WSW 6.9 mph - N/A   Overcast
6:53 AM 64.0 °F - - N/A% 29.79 in 10.0 mi SSW 3.5 mph - N/A   Mostly Cloudy
7:18 AM 64.4 °F - - N/A% 29.78 in 10.0 mi SW 5.8 mph - N/A   Scattered Clouds
7:53 AM 64.9 °F - - N/A% 29.78 in 10.0 mi WSW 6.9 mph - N/A   Scattered Clouds
8:53 AM 68.0 °F - 68.0 °F 100% 29.80 in 10.0 mi SW 6.9 mph - N/A   Clear
9:53 AM 73.0 °F - 66.9 °F 81% 29.80 in 10.0 mi SW 10.4 mph - N/A   Scattered Clouds
10:53 AM 75.9 °F - 66.0 °F 71% 29.80 in 10.0 mi SW 10.4 mph - N/A   Scattered Clouds
11:53 AM 80.1 °F 81.9 °F 64.9 °F 60% 29.80 in 10.0 mi West 13.8 mph - N/A   Scattered Clouds
12:53 PM 82.9 °F 84.6 °F 64.9 °F 54% 29.78 in 10.0 mi WSW 10.4 mph 16.1 mph N/A   Scattered Clouds
1:53 PM 84.9 °F 86.1 °F 64.0 °F 49% 29.76 in 10.0 mi Variable 6.9 mph - N/A   Scattered Clouds
2:53 PM 86.0 °F 86.8 °F 63.0 °F 46% 29.73 in 10.0 mi SW 10.4 mph - N/A   Scattered Clouds
3:53 PM 87.1 °F 87.5 °F 62.1 °F 43% 29.72 in 10.0 mi WSW 4.6 mph - N/A   Scattered Clouds
4:53 PM 81.0 °F 83.8 °F 68.0 °F 65% 29.70 in 10.0 mi SSE 13.8 mph - N/A   Overcast
5:22 PM 80.6 °F 83.2 °F 68.0 °F 65% 29.70 in 10.0 mi South 6.9 mph - N/A Rain , Thunderstorm Light Thunderstorms and Rain
5:53 PM 72.0 °F - 69.1 °F 91% 29.73 in 10.0 mi North 4.6 mph - N/A Rain , Thunderstorm Thunderstorms and Rain
6:53 PM 75.9 °F - 70.0 °F 82% 29.72 in 10.0 mi WSW 3.5 mph - 0.07 in   Scattered Clouds
7:53 PM 75.0 °F - 71.1 °F 87% 29.72 in 10.0 mi Calm Calm - N/A   Scattered Clouds
8:53 PM 75.0 °F - 71.1 °F 87% 29.76 in 10.0 mi West 6.9 mph - 0.00 in   Overcast
9:53 PM 73.0 °F - 69.1 °F 87% 29.77 in 10.0 mi Calm Calm - N/A   Scattered Clouds
10:53 PM 72.0 °F - 69.1 °F 91% 29.76 in 10.0 mi Calm Calm - N/A   Partly Cloudy
11:53 PM 72.0 °F - 69.1 °F 91% 29.75 in 10.0 mi Calm Calm - N/A   Clear